| DS18B20 | SHTC3 | ||||||
|---|---|---|---|---|---|---|---|
| ID | Date d/m/Y & Time | data1 สูง | data2 ต่ำ | data3 นอก | temp pcb | hum pcb | Time |
| 1963 | 13/03/2026 03:09:41 | 27.4  | 27.5  | 26.1  | 27.4  | 70.9  | 03:09 |
| 1962 | 13/03/2026 03:04:59 | 27.4  | 27.6  | 26.0  | 27.4  | 70.9  | 03:04 |
| 1961 | 13/03/2026 03:00:18 | 27.5  | 27.6  | 25.9  | 27.3  | 70.9  | 03:00 |
| 1960 | 13/03/2026 02:55:36 | 27.5  | 27.6  | 25.9  | 27.5  | 70.7  | 02:55 |
| 1959 | 13/03/2026 02:50:55 | 27.5  | 27.6  | 26.2  | 27.4  | 70.8  | 02:50 |
| 1958 | 13/03/2026 02:46:11 | 27.6  | 27.6  | 26.2  | 27.5  | 70.8  | 02:46 |
| 1957 | 13/03/2026 02:41:30 | 27.6  | 27.7  | 26.2  | 27.6  | 70.8  | 02:41 |
| 1956 | 13/03/2026 02:36:48 | 27.6  | 27.7  | 26.2  | 27.4  | 70.7  | 02:36 |
| 1955 | 13/03/2026 02:32:06 | 27.6  | 27.7  | 26.2  | 27.7  | 70.7  | 02:32 |
| 1954 | 13/03/2026 02:27:24 | 27.7  | 27.7  | 26.5  | 27.6  | 70.7  | 02:27 |
| 1953 | 13/03/2026 02:22:42 | 27.7  | 27.8  | 26.7  | 27.7  | 70.7  | 02:22 |
| 1952 | 13/03/2026 02:18:01 | 27.7  | 27.8  | 26.8  | 27.7  | 70.7  | 02:18 |
| 1951 | 13/03/2026 02:13:19 | 27.8  | 27.8  | 26.9  | 27.6  | 70.7  | 02:13 |
| 1950 | 13/03/2026 02:08:37 | 27.8  | 27.8  | 26.9  | 27.7  | 70.7  | 02:08 |
| 1949 | 13/03/2026 02:03:55 | 27.8  | 27.8  | 27.0  | 27.8  | 70.7  | 02:03 |
| 1948 | 13/03/2026 01:59:13 | 27.8  | 27.8  | 27.0  | 27.9  | 70.7  | 01:59 |
| 1947 | 13/03/2026 01:54:32 | 27.8  | 27.9  | 27.1  | 27.7  | 70.6  | 01:54 |
| 1946 | 13/03/2026 01:49:49 | 27.8  | 27.9  | 27.0  | 27.8  | 70.7  | 01:49 |
| 1945 | 13/03/2026 01:45:07 | 27.9  | 27.9  | 27.0  | 27.7  | 70.7  | 01:45 |
| 1944 | 13/03/2026 01:40:26 | 27.9  | 27.9  | 27.1  | 27.9  | 70.6  | 01:40 |
| 1943 | 13/03/2026 01:35:44 | 27.9  | 27.9  | 27.1  | 27.8  | 70.6  | 01:35 |
| 1942 | 13/03/2026 01:31:03 | 27.9  | 27.9  | 27.1  | 27.8  | 70.7  | 01:31 |
| 1941 | 13/03/2026 01:26:21 | 27.9  | 27.9  | 27.1  | 27.9  | 70.7  | 01:26 |
| 1940 | 13/03/2026 01:21:39 | 27.9  | 27.9  | 27.1  | 27.9  | 70.7  | 01:21 |